Atari, India

3:49 AM IST on February 24, 2017 (GMT +0530)
Amritsar

Weather History for VIAR - May, 2013

Change the Weather History Date:

Wednesday, May 22, 2013

  Actual Average Record
Temperature  
Mean Temperature 98 °F -  
Max Temperature 117 °F 100 °F 117 °F (2013)
Min Temperature 78 °F 77 °F 64 °F (2008)
Cooling Degree Days 32    
Growing Degree Days 48 (Base 50)    
Moisture  
Dew Point 52 °F    
Average Humidity 24    
Maximum Humidity 48    
Minimum Humidity 5    
Precipitation  
Precipitation 0.00 in - - ()
Sea Level Pressure  
Sea Level Pressure 29.50 in    
Wind  
Wind Speed 4 mph ()    
Max Wind Speed 17 mph    
Max Gust Speed -    
Visibility 2.3 miles    
Events      
Averages and records for this station are not official NWS values.
T = Trace of Precipitation, MM = Missing Value Source: Averaged Metar Reports

Daily Weather History Graph

Daily Weather History Graph

Search for Another Location

Airport or City:

Trip Planner

Search our weather history database for the weather conditions in past years. The results will help you decide how hot, cold, wet, or windy it might be!

Date:

Astronomy

May. 22, 2013 Rise Set
Actual Time 5:29 AM IST 7:24 PM IST
Civil Twilight 5:02 AM IST 7:51 PM IST
Nautical Twilight 4:30 AM IST 8:24 PM IST
Astronomical Twilight 3:55 AM IST 8:59 PM IST
Moon 4:25 PM IST (5/22) 3:05 AM IST (5/22)
Length of Visible Light 14h 49m
Length of Day
13h 54m
Waxing Gibbous, 88% of the Moon is Illuminated
May 22
Waxing Gibbous
May 25
Full
Jun 1
Last Quarter
Jun 8
New
Jun 16
First Quarter

Hourly Weather History & Observations

Time (IST) Temp. Heat Index Dew Point Humidity Pressure Visibility Wind Dir Wind Speed Gust Speed Precip Events Conditions
2:30 AM 84 °F - 55 °F 27% 29.49 in 1 mi Calm Calm - -   Smoke
2:30 AM 84.2 °F 83.0 °F 55.4 °F 37% 29.53 in 1.6 mi Calm Calm - N/A   Smoke
3:00 AM 80.6 °F 80.8 °F 57.2 °F 45% 29.50 in 1.6 mi SW 4.6 mph - N/A   Smoke
3:30 AM 80.6 °F 80.8 °F 57.2 °F 45% 29.50 in 1.6 mi Calm Calm - N/A   Smoke
4:30 AM 80.6 °F 80.8 °F 57.2 °F 45% 29.50 in 1.6 mi Calm Calm - N/A   Smoke
5:00 AM 80.6 °F 80.8 °F 57.2 °F 45% 29.50 in 1.6 mi Calm Calm - N/A   Haze
5:30 AM 80 °F - 57 °F 34% 29.49 in 1 mi Calm Calm - -   Haze
5:30 AM 80.6 °F 80.8 °F 57.2 °F 45% 29.53 in 1.6 mi Calm Calm - N/A   Haze
6:30 AM 80.6 °F 81.1 °F 59.0 °F 48% 29.53 in 1.9 mi Calm Calm - N/A   Haze
8:30 AM 96 °F - 54 °F 15% 29.50 in 1 mi SW 6.9 mph - -   Haze
9:30 AM 100.4 °F 98.4 °F 53.6 °F 21% 29.56 in 2.2 mi Calm Calm - N/A   Smoke
11:00 AM 107.6 °F - 48.2 °F 14% 29.56 in 3.1 mi WNW 1.2 mph - N/A   Smoke
11:30 AM 109 °F - 52 °F 9% 29.50 in 2 mi WNW 12.7 mph - -  
12:30 PM 111.2 °F - 46.4 °F 12% 29.56 in 3.7 mi WNW 13.8 mph - N/A   Unknown
1:00 PM 113.0 °F - 46.4 °F 11% 29.53 in 3.7 mi NW 12.7 mph - N/A   Unknown
2:30 PM 116 °F - 46 °F 5% 29.44 in 2 mi West 11.5 mph - -  
3:30 PM 114.8 °F - 44.6 °F 10% 29.50 in 3.7 mi West 16.1 mph - N/A   Unknown
4:00 PM 114.8 °F - 44.6 °F 10% 29.50 in 3.7 mi WNW 15.0 mph - N/A   Unknown
4:30 PM 113.0 °F - 42.8 °F 10% 29.47 in 3.7 mi WNW 17.3 mph - N/A   Unknown
5:30 PM 113 °F - 45 °F 5% 29.41 in 2 mi West 12.7 mph - -  
5:30 PM 113.0 °F - 44.6 °F 10% 29.47 in 3.7 mi West 12.7 mph - N/A   Unknown
6:00 PM 111.2 °F - 48.2 °F 12% 29.47 in 3.7 mi WNW 10.4 mph - N/A   Unknown
8:30 PM 95 °F - 53 °F 16% 29.46 in 2 mi Calm Calm - -   Haze
8:30 PM 95.0 °F 92.7 °F 53.6 °F 25% 29.50 in 2.5 mi Calm Calm - N/A   Haze
10:00 PM 93.2 °F 90.8 °F 53.6 °F 26% 29.53 in 2.2 mi Variable 1.2 mph - N/A   Smoke
10:30 PM 89.6 °F 87.7 °F 55.4 °F 31% 29.53 in 2.2 mi Calm Calm - N/A   Smoke
11:00 PM 89.6 °F 87.7 °F 55.4 °F 31% 29.53 in 1.9 mi Calm Calm - N/A   Smoke
11:30 PM 88 °F - 54 °F 22% 29.49 in 2 mi Calm Calm - -   Smoke